Content
SEND FEEDBACK

Daily
Averages
Monthly
Summary
United States of America

LOWER ECHO LAKE, CALIFORNIA


Home > North America > United States > California
Elevation: 6350 feet     Latitude: 38 51N     Longitude: 120 01W

WEATHER
 
SELECT A DAY
Number of Records: 178,583;   Date Range: 1/1/95 - 12/17/14
 
SHARE

PRINT THIS DATA

[ ← Previous Day ]
WEATHER ALMANAC - MARCH 29, 2013
[ Next Day → ]
[ °C ]   °F
Weather ElementAverageHighLow
Temperature38 °F55 °F (3:53 pm)30 °F (4:53 am)
Dewpoint31.3 °F39 °F (12:53 pm)24.8 °F (6:42 am)
Humidity79.1 %93 % (4:09 am)40 % (4:53 pm)
Barometer30.19 in30.25 in (10:19 am)30.12 in (5:53 pm)
Wind Speed1.2 mph6.9 mph (2:53 pm)
Weather ElementAverage
Visibility6.7 mi
Wind DirectionNNE (22.6 °)

Weather ElementTotal
Precipitation---
Heating Degree Days22.5 (Base 65)
Averaged from 38 records on March 29, 2013
WEATHER CONDITIONS BREAKOUT
WIND DIRECTION BREAKOUT
WEATHER BY HOUR - MARCH 29, 2013
[ °C ]   °F
Local TimeTemperatureDewpointHumidityBarometerVisibilityWind DirectionWind SpeedGust SpeedPrecipitationEventsConditions
1:53 AM32.0 °F28.9 °F88 %30.14 in0.8 miCalmMist
2:25 AM32.0 °F28.4 °F87 %30.19 in1.5 miCalmOvercast
2:36 AM32.0 °F28.4 °F87 %30.19 in0.5 miSouth (180°)3.5 mphFogFog
2:53 AM32.0 °F28.9 °F88 %30.14 in0.8 miSouth (190°)3.5 mphMist
2:58 AM32.0 °F28.4 °F87 %30.19 in2.0 miCalmMostly Cloudy
3:02 AM32.0 °F28.4 °F87 %30.19 in5.0 miCalmMostly Cloudy
3:12 AM32.0 °F28.4 °F87 %30.19 in7.0 miCalmScattered Clouds
3:53 AM30.9 °F28.0 °F89 %30.14 in9.0 miCalmClear
4:09 AM30.2 °F28.4 °F93 %30.20 in9.0 miCalmPartly Cloudy
4:53 AM30.0 °F27.0 °F88 %30.17 in8.0 miCalmClear
5:53 AM30.0 °F26.1 °F85 %30.20 in10.0 miCalmClear
6:42 AM30.2 °F24.8 °F80 %30.22 in10.0 miCalmScattered Clouds
6:53 AM30.0 °F25.0 °F82 %30.21 in10.0 miCalmMostly Cloudy
7:23 AM30.2 °F26.6 °F86 %30.23 in10.0 miCalmOvercast
7:45 AM30.2 °F26.6 °F86 %30.23 in2.5 miCalmOvercast
7:53 AM30.9 °F28.0 °F89 %30.22 in1.8 miCalmOvercast
8:14 AM32.0 °F28.4 °F87 %30.24 in0.5 miCalmFogFog
8:53 AM34.0 °F30.9 °F89 %30.22 in0.2 miCalmFogFog
9:53 AM35.1 °F33.1 °F92 %30.23 in0.2 miCalmFogFog
10:19 AM35.6 °F33.8 °F93 %30.25 in1.2 miENE (60°)3.5 mphOvercast
10:25 AM35.6 °F33.8 °F93 %30.25 in3.0 miCalmOvercast
10:34 AM37.4 °F33.8 °F87 %30.25 in6.0 miNE (50°)3.5 mphOvercast
10:53 AM37.9 °F34.0 °F86 %30.24 in7.0 miNE (50°)3.5 mphOvercast
11:16 AM39.2 °F35.6 °F87 %30.25 in9.0 miCalmOvercast
11:53 AM43.0 °F37.0 °F80 %30.22 in10.0 miENE (70°)4.6 mphOvercast
12:28 PM46.4 °F37.4 °F71 %30.24 in10.0 miVariable4.6 mphScattered Clouds
12:53 PM48.0 °F39.0 °F71 %30.18 in10.0 miNE (50°)5.8 mphPartly Cloudy
1:53 PM51.1 °F39.0 °F63 %30.17 in10.0 miNorth (10°)3.5 mphClear
2:53 PM54.0 °F36.0 °F51 %30.14 in10.0 miNNE (20°)6.9 mphClear
3:53 PM55.0 °F34.0 °F45 %30.13 in10.0 miCalmPartly Cloudy
4:53 PM55.0 °F30.9 °F40 %30.13 in10.0 miCalmScattered Clouds
5:53 PM55.0 °F30.9 °F40 %30.12 in10.0 miCalmClear
6:53 PM50.0 °F35.1 °F57 %30.14 in10.0 miCalmMostly Cloudy
7:53 PM46.0 °F35.1 °F66 %30.16 in10.0 miCalmMostly Cloudy
8:53 PM42.1 °F34.0 °F73 %30.18 in10.0 miCalmClear
9:53 PM39.9 °F33.1 °F77 %30.20 in10.0 miCalmClear
10:53 PM37.9 °F33.1 °F83 %30.21 in10.0 miCalmClear
11:53 PM36.0 °F32.0 °F86 %30.19 in10.0 miSouth (180°)3.5 mphScattered Clouds
Hourly data recorded from KTVL, located miles away from Lower Echo Lake, California







STORIES FROM OUR PARTNERS